FW6146 Weather Reports


Display with metric or nautical units.
time (UTC)temp
F
wind
direction
speed
MPH
gust
MPH
rain 1hr
in
rain 24hr
in
rain mn
in
humidity
%
barometer
mb
20260503195025 54 334 2.0 8.0 0.00 0.00 0.00 43 1005.1
20260503194011 53 320 2.0 6.0 0.00 0.00 0.00 44 1004.9
20260503193017 53 342 3.0 5.0 0.00 0.00 0.00 44 1005.1
20260503192016 53 41 2.0 3.0 0.00 0.00 0.00 47 1005.2
20260503191002 52 318 3.0 5.0 0.00 0.00 0.00 47 1005.3
20260503190041 53 305 3.0 5.0 0.00 0.00 0.00 46 1005.2
20260503185004 54 329 1.0 7.0 0.00 0.01 0.00 46 1005.2
20260503184023 52 316 2.0 5.0 0.00 0.01 0.00 48 1005.4
20260503183028 51 343 2.0 3.0 0.00 0.01 0.00 52 1005.3
20260503182027 51 310 3.0 9.0 0.00 0.02 0.00 50 1005.3
20260503181012 51 346 0.0 5.0 0.00 0.02 0.00 51 1005.2
20260503180110 51 296 4.0 7.0 0.00 0.04 0.00 51 1005.1
20260503175015 52 31 2.0 7.0 0.00 0.04 0.00 51 1005.2
20260503174002 52 3 2.0 5.0 0.00 0.04 0.00 49 1005.1
20260503172915 51 290 3.0 7.0 0.00 0.04 0.00 49 1005.2
20260503171933 51 332 1.0 3.0 0.00 0.05 0.00 51 1005.2
20260503170939 51 36 1.0 6.0 0.00 0.05 0.00 53 1005.2
20260503150953 45 326 1.0 6.0 0.00 0.05 0.00 81 1005.3
20260503131003 45 314 3.0 6.0 0.00 0.05 0.00 76 1005.3
20260503080953 45 272 1.0 2.0 0.00 0.06 0.00 79 1006.6
20260503072930 46 334 0.0 1.0 0.00 0.06 0.00 79 1007.2
20260503071949 46 323 1.0 2.0 0.00 0.06 0.00 79 1007.1
20260503070934 46 347 0.0 2.0 0.00 0.06 0.00 79 1007.2
20260503054954 48 307 2.0 5.0 0.00 0.06 0.00 71 1008.5
20260503053940 48 0 0.0 2.0 0.00 0.06 0.00 71 1008.4
20260503053000 48 332 1.0 2.0 0.00 0.06 0.00 68 1008.5
20260503051945 48 2 0.0 1.0 0.00 0.06 0.00 70 1008.5
20260503050951 49 333 1.0 6.0 0.00 0.06 0.00 71 1008.7
20260503050010 49 336 1.0 3.0 0.00 0.06 0.00 75 1008.9
20260503044956 49 336 1.0 3.0 0.00 0.06 0.00 79 1008.6
20260503044015 49 327 0.0 3.0 0.00 0.06 0.00 84 1008.8
20260503042941 49 0.0 0.0 0.00 0.06 0.00 87 1008.9
20260503041959 49 0.0 0.0 0.00 0.06 0.00 88 1009.3
20260503040945 49 0.0 0.0 0.00 0.06 0.00 89 1009.3
20260503040005 49 0.0 0.0 0.00 0.06 0.06 90 1009.2
20260503034951 49 0.0 0.0 0.00 0.06 0.06 90 1009.4
20260503033936 49 0.0 0.0 0.00 0.06 0.06 90 1009.3
20260503032956 49 0.0 0.0 0.00 0.06 0.06 90 1009.3
20260503031942 49 0.0 0.0 0.00 0.06 0.06 90 1009.3
20260503031001 49 0.0 0.0 0.00 0.06 0.06 90 1009.5
20260503030007 49 0.0 0.0 0.00 0.06 0.06 90 1009.4
20260503025006 49 0.0 0.0 0.00 0.06 0.06 89 1009.5
20260503023952 49 0.0 0.0 0.00 0.06 0.06 89 1009.4
20260503022938 49 0.0 0.0 0.00 0.06 0.06 89 1009.5
20260503021957 49 0.0 0.0 0.00 0.06 0.06 89 1009.5
20260503021004 49 0.0 0.0 0.00 0.06 0.06 88 1009.7
20260503020023 49 0.0 0.0 0.00 0.06 0.06 88 1009.7
20260503014948 49 0.0 0.0 0.00 0.06 0.06 88 1009.8
20260503014007 50 0.0 0.0 0.00 0.06 0.06 87 1009.8
20260503013013 50 320 0.0 1.0 0.00 0.06 0.06 87 1009.7
20260503012013 50 0.0 0.0 0.00 0.06 0.06 87 1009.8
20260503010958 50 0.0 0.0 0.00 0.06 0.06 87 1009.8
20260503005944 50 0.0 0.0 0.00 0.06 0.06 87 1009.8
20260503005003 50 0.0 0.0 0.00 0.06 0.06 87 1009.5
20260503003949 50 0.0 0.0 0.00 0.06 0.06 86 1009.4
20260503003007 50 0.0 0.0 0.00 0.06 0.06 86 1009.4
20260503002013 50 326 1.0 1.0 0.00 0.06 0.06 86 1009.2
20260503001012 50 0.0 0.0 0.00 0.06 0.06 86 1009.5
20260502235958 51 0.0 0.0 0.00 0.06 0.06 85 1009.2
20260502235017 51 0.0 0.0 0.00 0.06 0.06 85 1009.2
20260502234003 51 0.0 0.0 0.00 0.06 0.06 84 1009.2
20260502232948 51 0.0 1.0 0.00 0.06 0.06 83 1009.3
20260502232007 51 332 1.0 1.0 0.00 0.06 0.06 83 1009.4
20260502230953 51 0.0 1.0 0.00 0.06 0.06 82 1009.4
20260502230011 52 316 1.0 1.0 0.00 0.06 0.06 82 1009.5
20260502224958 52 306 1.0 2.0 0.00 0.06 0.06 81 1009.3
20260502224018 52 299 1.0 2.0 0.00 0.06 0.06 80 1009.3
20260502223004 52 313 0.0 2.0 0.00 0.06 0.06 79 1009.1
20260502221950 52 315 1.0 2.0 0.00 0.06 0.06 79 1009.1
20260502221049 53 305 1.0 3.0 0.00 0.06 0.06 78 1009.2
20260502215955 53 306 1.0 3.0 0.00 0.06 0.06 77 1009.3
20260502215015 53 306 2.0 2.0 0.00 0.06 0.06 77 1009.3
20260502214001 53 288 2.0 2.0 0.00 0.06 0.06 76 1009.2
20260502213100 53 292 2.0 5.0 0.00 0.06 0.06 76 1009.3
20260502212027 54 288 2.0 7.0 0.00 0.06 0.06 75 1009.0
20260502210953 53 301 4.0 8.0 0.00 0.06 0.06 74 1009.2
20260502210011 53 303 2.0 3.0 0.00 0.06 0.06 76 1009.2
20260502204957 53 300 2.0 3.0 0.00 0.06 0.06 77 1009.4
20260502204016 53 307 1.0 6.0 0.00 0.06 0.06 76 1009.4
20260502203002 52 289 2.0 3.0 0.00 0.06 0.06 77 1009.2
20260502202042 52 297 1.0 3.0 0.00 0.06 0.06 78 1009.4
20260502201008 52 296 1.0 2.0 0.00 0.06 0.06 77 1009.5
20260502195954 52 302 2.0 3.0 0.00 0.06 0.06 75 1009.8